Southport, FL

1:42 AM CDT on August 27, 2016 (GMT -0500)
Northwest Florida Beaches International

Weather History for KECP - March, 2013

Change the Weather History Date:

Wednesday, March 13, 2013

  Actual Average Record
Temperature  
Mean Temperature 54 °F -  
Max Temperature 68 °F - 76 °F (2016)
Min Temperature 39 °F - 37 °F (2014)
Degree Days  
Heating Degree Days 11    
Cooling Degree Days 0    
Growing Degree Days 2 (Base 50)    
Moisture  
Dew Point 34 °F    
Average Humidity 56    
Maximum Humidity 86    
Minimum Humidity 26    
Precipitation  
Precipitation 0.05 in - 0.21 in (2015)
Month to date precipitation  
Year to date precipitation  
Sea Level Pressure  
Sea Level Pressure 30.25 in    
Wind  
Wind Speed 8 mph (NW)    
Max Wind Speed 21 mph    
Max Gust Speed 25 mph    
Visibility 10 miles    
Events      
T = Trace of Precipitation, MM = Missing Value Source: NWS Daily Summary

Daily Weather History Graph

Daily Weather History Graph

Search for Another Location

Airport or City:

Trip Planner

Search our weather history database for the weather conditions in past years. The results will help you decide how hot, cold, wet, or windy it might be!

Date:

Astronomy

Mar. 13, 2013 Rise Set
Actual Time 7:55 AM EDT 7:50 PM EDT
Civil Twilight 7:31 AM EDT 8:14 PM EDT
Nautical Twilight 7:03 AM EDT 8:42 PM EDT
Astronomical Twilight 6:35 AM EDT 9:10 PM EDT
Moon 8:45 AM EDT (3/13) 9:53 PM EDT (3/13)
Length of Visible Light 12h 43m
Length of Day
11h 55m
Waxing Crescent, 4% of the Moon is Illuminated
Mar 13
Waxing Crescent
Mar 19
First Quarter
Mar 27
Full
Apr 3
Last Quarter
Apr 10
New

Hourly Weather History & Observations

Time (EDT) Temp. Windchill Dew Point Humidity Pressure Visibility Wind Dir Wind Speed Gust Speed Precip Events Conditions
12:53 AM 48.0 °F - 37.9 °F 68% 30.18 in 10.0 mi NW 5.8 mph - N/A   Clear
1:53 AM 46.0 °F 43.1 °F 37.9 °F 73% 30.18 in 10.0 mi NW 5.8 mph - N/A   Clear
2:53 AM 44.6 °F 41.4 °F 37.4 °F 76% 30.16 in 10.0 mi NW 5.8 mph - N/A   Clear
3:53 AM 44.1 °F 40.8 °F 37.0 °F 76% 30.19 in 10.0 mi NW 5.8 mph - N/A   Clear
4:53 AM 43.0 °F 38.8 °F 37.0 °F 80% 30.20 in 10.0 mi NW 6.9 mph - N/A   Clear
5:53 AM 43.0 °F - 36.0 °F 76% 30.22 in 10.0 mi Calm Calm - N/A   Clear
6:53 AM 41.0 °F - 37.0 °F 86% 30.24 in 10.0 mi Calm Calm - N/A   Clear
7:53 AM 39.0 °F 35.7 °F 36.0 °F 89% 30.26 in 10.0 mi NNW 4.6 mph - N/A   Clear
8:53 AM 46.0 °F 41.9 °F 39.0 °F 76% 30.28 in 10.0 mi NW 8.1 mph - N/A   Clear
9:53 AM 53.1 °F - 37.9 °F 57% 30.30 in 10.0 mi NW 6.9 mph - N/A   Clear
10:53 AM 59.0 °F - 36.0 °F 42% 30.32 in 10.0 mi NW 10.4 mph - N/A   Clear
11:53 AM 62.1 °F - 35.1 °F 37% 30.31 in 10.0 mi NW 11.5 mph - N/A   Clear
12:53 PM 64.0 °F - 34.0 °F 33% 30.30 in 10.0 mi WNW 9.2 mph - N/A   Clear
1:53 PM 66.0 °F - 36.0 °F 33% 30.27 in 9.0 mi West 12.7 mph - N/A   Clear
2:53 PM 66.9 °F - 35.1 °F 31% 30.24 in 10.0 mi NW 21.9 mph 25.3 mph N/A   Clear
3:53 PM 66.9 °F - 33.1 °F 28% 30.22 in 10.0 mi WNW 11.5 mph 21.9 mph N/A   Clear
4:53 PM 66.9 °F - 33.1 °F 28% 30.21 in 10.0 mi WNW 13.8 mph - N/A   Clear
5:53 PM 66.9 °F - 34.0 °F 30% 30.21 in 10.0 mi NW 13.8 mph - N/A   Clear
6:53 PM 64.0 °F - 28.0 °F 26% 30.22 in 10.0 mi NW 16.1 mph - N/A   Clear
7:53 PM 59.0 °F - 28.0 °F 31% 30.24 in 10.0 mi WNW 11.5 mph - N/A   Clear
8:53 PM 53.1 °F - 32.0 °F 45% 30.26 in 10.0 mi NW 6.9 mph - N/A   Clear
9:53 PM 52.0 °F - 28.0 °F 40% 30.28 in 10.0 mi NW 8.1 mph - N/A   Clear
10:53 PM 48.9 °F - 30.0 °F 48% 30.30 in 10.0 mi NW 6.9 mph - N/A   Clear
11:53 PM 46.0 °F 41.9 °F 32.0 °F 58% 30.32 in 10.0 mi NW 8.1 mph - N/A   Clear